Wind_Speed
8 7 7 7 7 6 3 2 3 3 5 4 4 6 8 8 9 9 10 9 7 8 7 6 6 6 5 5 6 7 8 8 8 8 7 7 8 8 7 7 7 7 7 7
9 8 7 7 8 6 6 5 4 5 6 5 6 6 7 8 8 9 9 9 8 8 7 6 6 5 5 5 6 7 8 8 8 8 7 7 8 8 8 8 7 7 7 7
10 9 9 9 8 8 7 7 7 7 7 7 7 8 9 9 8 9 9 9 8 6 6 5 5 5 6 6 6 6 7 8 8 8 8 8 8 8 8 8 8 7 7 7
11 11 10 10 11 10 9 9 9 9 9 9 9 11 11 11 10 9 8 8 8 7 7 6 7 7 7 7 7 7 8 8 8 8 9 9 9 9 9 9 9 8 7 7
11 12 12 12 13 12 11 11 11 10 9 10 10 11 11 11 9 7 7 8 8 8 9 8 9 9 9 9 9 9 9 9 9 9 10 10 10 10 10 10 9 9 8 8
13 13 13 13 13 12 10 9 8 9 8 10 11 11 12 14 12 10 9 9 9 10 10 10 11 11 10 10 10 10 10 10 11 11 11 11 11 11 11 10 10 10 9 9
13 14 14 14 12 12 10 9 9 10 10 11 11 11 12 14 14 13 12 11 12 12 12 12 12 12 12 12 11 11 11 12 12 12 12 12 12 12 12 11 11 11 11 11
11 13 15 14 13 13 12 12 11 11 10 11 10 12 13 14 15 15 13 13 13 13 14 13 12 12 12 12 12 12 12 12 12 13 13 13 13 13 12 12 12 12 12 13
12 14 14 14 14 14 13 13 13 14 14 14 13 14 13 16 16 15 15 14 14 15 15 15 14 13 13 14 13 13 13 13 13 14 14 14 14 14 14 14 14 14 14 14
15 14 14 13 14 14 15 14 14 14 15 14 14 15 17 19 18 18 17 16 16 16 15 15 15 14 14 14 14 14 14 14 15 15 15 15 15 15 15 15 16 15 15 16
18 17 15 14 14 14 14 15 15 15 14 14 15 16 17 18 18 18 18 17 17 17 16 15 15 15 15 16 15 15 15 15 16 16 16 16 16 16 16 16 16 17 16 16
18 17 16 15 16 16 16 16 15 16 16 16 16 16 18 19 21 20 19 19 18 17 17 16 17 17 17 17 17 17 17 17 17 17 17 17 17 17 18 18 18 18 18 18
19 19 17 16 16 17 17 17 16 16 16 17 17 20 20 21 23 20 19 20 18 18 18 18 18 18 18 19 19 18 18 19 19 18 18 19 19 19 19 20 21 20 20 20
21 21 20 19 17 16 17 17 18 18 18 18 19 22 22 22 22 22 20 20 20 19 19 19 19 19 19 19 19 20 20 21 21 20 19 20 20 20 21 22 22 22 22 22
23 24 23 22 20 19 18 17 17 19 19 20 20 21 23 24 24 22 19 19 21 21 20 21 21 20 20 20 20 21 21 21 21 21 21 21 21 21 22 23 23 23 24 24
25 25 25 24 22 21 20 20 19 19 19 20 22 23 24 25 25 24 22 21 22 23 22 21 22 22 22 22 22 22 22 22 22 22 22 23 23 23 24 24 24 25 25 25
25 25 25 24 23 22 22 21 22 22 22 23 25 26 25 24 24 24 23 23 23 24 23 22 22 23 23 23 23 23 23 23 23 24 24 24 25 26 26 27 26 26 26 26
26 26 26 24 23 25 25 23 23 23 23 25 27 27 25 24 25 25 25 25 25 26 25 24 24 24 25 25 25 25 25 25 26 26 26 26 27 27 27 28 28 27 27 28
25 26 25 25 24 25 25 24 24 25 26 27 27 27 26 27 27 27 27 27 27 27 27 27 26 26 26 26 26 27 27 27 28 28 28 28 29 29 29 29 30 29 29 29
23 25 26 26 25 24 26 27 26 26 27 28 29 29 28 29 29 29 29 28 28 28 28 28 28 28 28 28 28 28 28 29 29 29 30 30 30 30 30 30 30 30 30 30
24 24 26 26 25 24 27 29 27 28 29 31 30 30 30 31 31 31 30 30 30 30 30 30 30 29 29 30 30 31 31 30 30 30 30 30 31 31 31 31 31 32 32 32
25 26 26 26 26 27 29 28 28 29 28 30 31 31 31 32 31 32 32 33 32 32 31 31 31 30 31 31 32 32 32 32 32 31 31 31 31 32 33 33 32 33 33 33
27 28 27 28 28 29 30 31 29 29 29 29 29 31 32 32 32 33 34 34 33 33 33 33 32 32 32 32 32 33 33 33 32 32 33 32 32 33 33 34 34 33 34 34
27 28 27 27 29 30 30 29 30 30 30 29 30 31 31 31 31 32 33 34 33 34 34 33 33 33 32 33 33 34 34 33 33 34 34 33 33 33 33 33 34 34 34 34
27 27 28 28 29 30 29 30 30 30 30 30 30 31 31 32 32 33 34 34 34 34 34 34 34 34 34 34 35 35 34 34 34 35 35 34 34 34 33 33 33 34 33 32
27 28 28 28 29 30 30 31 30 30 30 30 30 31 31 32 32 33 33 33 33 33 33 33 34 35 35 36 36 36 35 35 34 34 34 34 34 34 33 32 32 32 32 32
Wind_Direction
192 195 191 194 225 212 178 235 277 284 293 298 314 312 321 327 331 333 333 333 335 341 343 348 350 353 358 2 7 10 12 11 8 8 11 15 15 11 11 12 10 7 7 7
206 207 203 211 233 225 211 238 255 272 293 294 285 307 310 314 318 319 322 324 328 335 337 339 340 339 341 344 350 354 355 0 1 359 1 3 6 4 3 2 360 357 354 354
206 212 216 225 234 228 228 247 259 253 270 286 292 297 297 303 304 297 306 315 323 321 322 323 322 324 325 329 333 339 343 348 349 349 350 349 351 354 358 357 355 352 348 350
214 214 222 225 234 233 234 237 247 254 256 276 288 282 276 286 298 295 298 304 308 307 303 309 308 309 313 314 316 322 326 332 336 337 339 339 339 341 345 347 349 350 348 343
216 217 221 225 231 231 231 236 248 255 256 267 278 282 278 284 287 284 289 289 293 296 294 303 311 307 302 302 304 308 312 317 321 323 325 328 331 332 336 337 338 338 335 334
216 225 226 227 235 235 236 246 257 265 273 275 276 274 271 280 280 286 292 287 290 288 290 297 301 305 302 299 299 299 303 307 309 312 314 317 320 321 322 323 325 325 326 326
225 225 229 231 233 232 233 241 257 268 269 273 277 269 265 273 282 281 284 285 287 286 285 287 292 295 298 296 296 298 299 301 304 306 310 312 313 314 317 316 318 317 319 320
238 237 232 231 231 228 230 235 245 258 263 269 260 255 266 271 279 282 281 282 284 287 285 282 284 289 292 293 294 294 296 296 299 302 305 307 310 311 312 313 312 310 311 313
230 239 241 242 239 232 228 235 247 259 263 260 264 265 268 276 276 279 280 277 281 286 285 286 282 283 287 288 290 293 292 290 292 298 302 306 308 307 307 308 307 306 308 307
219 235 238 245 247 242 233 235 242 246 259 259 256 261 266 272 276 279 281 280 280 279 281 285 284 280 283 284 286 289 291 291 291 293 296 300 303 305 305 307 308 306 305 305
224 228 237 238 242 243 241 242 244 247 248 255 258 264 267 273 270 275 281 279 281 280 280 282 285 282 281 282 283 285 287 289 289 291 293 294 296 298 301 304 306 305 303 303
231 229 236 240 244 243 242 244 246 251 255 255 258 260 262 267 269 272 275 277 278 279 281 280 282 282 282 283 283 284 285 286 288 290 292 293 292 293 295 298 300 300 299 298
230 231 234 240 245 247 246 246 243 244 254 260 262 264 261 266 268 271 272 274 278 278 280 280 281 283 284 286 285 285 285 285 286 287 289 289 289 289 293 296 298 299 297 295
234 236 232 234 240 250 253 252 250 246 244 254 261 267 272 272 269 272 275 276 276 275 276 277 277 279 283 285 286 286 284 285 286 287 287 288 288 292 294 296 298 297 297 296
236 239 237 235 237 243 248 252 252 251 249 251 256 263 270 271 271 269 275 278 276 274 273 274 275 276 280 283 284 284 284 284 285 287 289 288 290 289 292 293 295 296 297 296
239 239 240 239 237 240 247 250 253 255 255 257 259 260 261 263 269 273 276 276 277 275 272 273 275 276 279 281 283 284 284 285 287 290 291 291 292 292 291 291 292 293 293 293
242 242 242 240 241 244 247 251 251 251 252 255 261 264 267 266 265 268 274 276 276 277 277 276 276 278 279 279 281 284 286 287 289 291 292 292 293 292 291 291 291 290 290 290
244 244 244 243 241 245 248 248 249 253 254 254 254 258 263 266 268 271 274 275 275 274 275 275 276 276 277 279 281 283 285 286 288 290 290 290 291 291 290 290 291 290 289 289
247 247 246 245 245 249 251 250 247 249 251 252 255 257 258 267 269 271 271 273 274 273 273 274 275 276 276 278 280 283 284 285 286 286 287 288 290 290 290 289 290 289 289 289
245 247 247 245 243 245 248 250 250 250 252 252 254 257 262 267 269 271 273 274 274 274 273 273 275 275 275 276 278 280 282 283 285 286 286 287 288 289 290 291 290 289 290 290
242 244 247 247 247 248 251 252 253 249 253 255 257 261 264 268 270 272 274 275 277 276 274 274 274 273 274 276 277 279 280 283 285 285 285 286 287 288 288 289 290 290 290 290
246 245 247 248 248 249 251 255 253 252 257 259 260 263 266 268 270 271 272 273 275 274 273 274 274 274 274 276 277 278 280 283 284 284 284 285 286 287 288 288 290 291 291 291
243 244 245 247 248 251 254 256 258 260 259 260 263 266 266 267 268 272 273 273 273 273 274 274 273 274 275 276 277 279 281 282 282 283 284 286 287 287 288 288 290 291 292 292
246 246 248 248 247 252 257 259 261 262 263 264 267 270 270 270 271 272 274 276 275 273 273 275 275 276 277 277 278 279 281 281 282 284 285 286 286 287 288 288 290 291 292 293
243 248 250 249 252 256 259 262 264 266 265 266 268 270 271 272 272 273 274 275 275 275 275 275 275 276 277 278 279 280 280 281 282 283 284 284 284 285 286 286 288 289 291 292
245 248 251 252 255 259 262 263 265 267 268 270 271 270 271 272 273 273 274 275 275 275 275 275 276 277 277 279 280 281 280 281 282 283 283 283 283 284 286 286 287 288 289 290
Height
5904 5907 5909 5911 5912 5913 5915 5918 5918 5919 5918 5918 5917 5916 5915 5913 5912 5911 5910 5908 5907 5907 5907 5906 5905 5905 5904 5904 5904 5903 5903 5902 5901 5901 5900 5900 5899 5898 5897 5896 5895 5894 5894 5893
5904 5906 5909 5910 5911 5913 5915 5917 5918 5918 5918 5917 5917 5916 5915 5914 5913 5912 5910 5909 5908 5907 5907 5906 5906 5905 5905 5905 5904 5904 5903 5903 5902 5901 5901 5900 5899 5899 5898 5897 5896 5895 5894 5893
5902 5906 5907 5910 5911 5913 5914 5916 5917 5917 5918 5916 5916 5916 5915 5913 5913 5911 5910 5908 5908 5907 5906 5906 5906 5906 5905 5905 5905 5904 5904 5903 5903 5902 5901 5900 5900 5899 5898 5897 5896 5895 5894 5894
5901 5904 5906 5909 5910 5911 5913 5914 5915 5916 5916 5916 5916 5915 5913 5912 5910 5909 5909 5908 5908 5907 5905 5905 5905 5906 5905 5905 5905 5905 5904 5903 5903 5902 5901 5901 5900 5899 5899 5898 5896 5895 5894 5894
5900 5902 5904 5907 5909 5909 5911 5912 5912 5913 5914 5914 5914 5914 5911 5910 5908 5908 5908 5908 5907 5906 5905 5904 5905 5905 5905 5904 5904 5904 5903 5903 5902 5902 5901 5900 5900 5899 5898 5897 5896 5895 5894 5893
5898 5900 5902 5904 5906 5907 5908 5910 5911 5911 5911 5913 5912 5911 5910 5908 5906 5906 5907 5907 5906 5906 5905 5904 5904 5904 5904 5903 5903 5903 5902 5902 5901 5901 5900 5899 5899 5898 5897 5896 5895 5894 5894 5893
5895 5897 5899 5901 5903 5905 5907 5909 5910 5910 5910 5911 5910 5909 5908 5906 5905 5905 5906 5905 5905 5904 5904 5903 5903 5902 5902 5902 5901 5901 5901 5900 5900 5899 5899 5898 5897 5896 5895 5894 5894 5893 5892 5891
5894 5897 5897 5899 5901 5903 5904 5907 5908 5909 5909 5909 5908 5906 5906 5905 5904 5904 5903 5903 5902 5902 5902 5901 5900 5900 5899 5899 5899 5899 5899 5898 5898 5897 5897 5896 5895 5894 5893 5892 5892 5891 5890 5889
5893 5895 5896 5896 5898 5900 5901 5903 5905 5906 5906 5906 5905 5903 5903 5902 5901 5900 5900 5899 5900 5899 5899 5898 5897 5897 5897 5896 5896 5896 5896 5896 5895 5895 5894 5894 5893 5892 5891 5890 5889 5888 5887 5886
5889 5891 5892 5894 5895 5896 5898 5900 5902 5903 5902 5902 5903 5901 5899 5898 5898 5897 5897 5896 5897 5896 5896 5895 5894 5894 5894 5894 5893 5893 5893 5893 5892 5892 5891 5891 5890 5889 5888 5887 5886 5885 5884 5883
5886 5888 5890 5891 5892 5894 5895 5897 5897 5898 5899 5899 5899 5898 5895 5895 5895 5894 5893 5892 5893 5893 5893 5892 5892 5891 5891 5891 5890 5890 5890 5889 5889 5888 5888 5887 5886 5885 5885 5884 5883 5882 5880 5879
5881 5884 5886 5887 5889 5890 5892 5893 5895 5896 5896 5896 5896 5896 5893 5892 5891 5890 5889 5889 5889 5889 5889 5888 5888 5888 5888 5887 5887 5887 5887 5886 5885 5884 5884 5883 5882 5882 5881 5880 5879 5877 5876 5875
5877 5879 5881 5883 5886 5886 5886 5888 5890 5892 5893 5892 5893 5893 5887 5888 5887 5885 5885 5885 5886 5886 5885 5885 5885 5884 5884 5883 5883 5883 5882 5882 5881 5880 5879 5878 5878 5877 5876 5875 5874 5872 5871 5870
5872 5874 5877 5880 5881 5882 5882 5884 5885 5887 5888 5888 5888 5887 5884 5882 5881 5881 5879 5881 5882 5882 5881 5881 5880 5880 5880 5879 5878 5878 5877 5877 5876 5875 5874 5874 5873 5872 5871 5870 5869 5867 5866 5865
5866 5868 5870 5873 5875 5877 5877 5879 5880 5881 5883 5883 5883 5882 5880 5877 5876 5876 5875 5876 5877 5877 5877 5877 5876 5876 5875 5875 5874 5873 5872 5872 5871 5870 5869 5868 5866 5866 5865 5864 5863 5862 5860 5859
5859 5862 5864 5866 5869 5871 5872 5874 5875 5876 5877 5878 5877 5876 5874 5872 5871 5871 5871 5872 5872 5872 5872 5872 5871 5871 5871 5870 5869 5868 5867 5866 5866 5865 5864 5862 5861 5860 5859 5858 5857 5856 5854 5853
5853 5855 5858 5860 5863 5865 5867 5869 5869 5870 5871 5872 5870 5869 5867 5866 5866 5866 5866 5866 5867 5867 5867 5867 5866 5866 5865 5864 5863 5862 5862 5861 5860 5859 5858 5857 5856 5854 5853 5852 5850 5849 5848 5846
5848 5850 5852 5854 5857 5859 5863 5863 5863 5863 5864 5863 5862 5861 5861 5859 5860 5861 5861 5861 5861 5861 5861 5861 5860 5860 5859 5858 5858 5857 5856 5855 5854 5853 5851 5850 5849 5848 5847 5845 5843 5842 5840 5839
5842 5843 5846 5848 5850 5852 5855 5855 5855 5856 5856 5855 5853 5853 5854 5854 5855 5854 5854 5855 5855 5855 5855 5854 5854 5853 5853 5852 5851 5851 5850 5849 5847 5846 5844 5843 5842 5840 5839 5837 5836 5834 5833 5831
5836 5837 5840 5841 5843 5846 5847 5846 5847 5849 5848 5848 5846 5846 5848 5849 5849 5848 5847 5848 5848 5848 5848 5847 5846 5846 5845 5845 5845 5844 5843 5842 5840 5839 5837 5835 5834 5832 5831 5829 5828 5826 5824 5823
5830 5831 5832 5834 5836 5838 5838 5838 5840 5841 5840 5840 5840 5840 5841 5842 5842 5841 5840 5840 5840 5840 5839 5839 5838 5838 5838 5837 5837 5836 5835 5833 5832 5830 5829 5828 5826 5824 5823 5821 5820 5818 5816 5814
5823 5825 5826 5827 5829 5831 5829 5830 5831 5831 5832 5833 5832 5833 5834 5834 5834 5833 5833 5833 5832 5831 5831 5831 5830 5830 5830 5829 5829 5828 5827 5825 5824 5822 5821 5819 5817 5816 5814 5812 5811 5809 5807 5805
5815 5817 5819 5821 5822 5822 5822 5822 5823 5824 5824 5825 5825 5825 5826 5826 5826 5826 5825 5824 5824 5823 5823 5822 5822 5821 5821 5820 5820 5819 5818 5816 5815 5814 5812 5810 5809 5807 5805 5803 5802 5799 5798 5796
5807 5809 5811 5812 5812 5814 5814 5815 5816 5817 5817 5817 5818 5818 5818 5817 5817 5817 5816 5815 5815 5814 5814 5813 5813 5813 5812 5811 5811 5810 5809 5807 5806 5804 5803 5801 5800 5798 5796 5794 5792 5791 5789 5787
5800 5801 5803 5804 5805 5806 5807 5807 5808 5809 5810 5810 5809 5809 5809 5809 5809 5808 5807 5806 5806 5805 5805 5804 5804 5803 5802 5802 5801 5800 5799 5797 5796 5795 5793 5792 5790 5789 5787 5786 5784 5782 5780 5778
5794 5794 5796 5797 5798 5799 5800 5800 5801 5801 5801 5801 5801 5801 5800 5800 5799 5799 5798 5798 5797 5796 5795 5795 5794 5794 5793 5792 5791 5790 5788 5787 5786 5784 5783 5782 5781 5780 5778 5777 5775 5773 5771 5769